Hlavní strana
METAR-TAF:

METAR-TAF

Letiště :

Remada, Tunisko

zeměpisná šířka: 32-19N, zeměpisná délka: 010-24E, výška: 300 m

Aktuální stav počasí

Zpráva byla vytvořena před 1 hodinou a 1 minutami, v 03:00 UTC
Východní vítr 3 kt, proměnlivý mezi severovýchodním a jihojihovýchodním
Teplota 13°C
Vlhkost vzduchu 72%
Tlak 1023 hPa

METAR: DTTD 070300Z AUTO 09003KT 040V150 NCD 13/08 Q1023

Čas: 05:01 (04:01 UTC)


TAF: chybějící

Stav a předpovědi počasí z více než 4 000 letišť (zprávy METAR a TAF).

Červené a žluté tečky na mapě představují dostupné meteorologické stanice.

Když kurzor umístíte na tečku, zobrazí se název stanice.

Pak kliknutím zobrazíte stav a předpověď počasí.

Chcete-li změnit mapu, kliknutím na zelené tlačítko se znaménkem +mapu přiblížíte, kliknutím na zelené tlačítko se znaménkem – mapu oddálíte a kliknutím na zelené šipky přejdete na sousední mapy.


METAR-TAF: